Location: Guilderland
(42.7045°N, 73.9115°W)
Time: 03:50:17
(UTC+00:00)

Cosmos 1953 Rocket - Pass Details

Date: 24 January 2020
Orbit: 604 x 635 km, 82.5° (Epoch: 16 February)

Event Time Altitude Azimuth Distance (km) Brightness Sun altitude
Rises 22:57:49 0° 179° (S) 2,916 7.2 -11.1°
Reaches altitude 10° 23:00:03 10° 177° (S) 2,014 6.3 -11.5°
Maximum altitude 23:04:29 66° 96° (E) 695 3.6 -12.3°
Drops below altitude 10° 23:08:57 10° 14° (NNE) 2,029 5.9 -13.1°
Sets 23:11:13 0° 11° (NNE) 2,939 6.8 -13.5°
